Location: Morisset
(33.1080°S, 151.4871°E)
Time: 08:07:58
(UTC+00:00)

CZ-4C R/B - Pass Details

Date: 29 October 2020
Orbit: 624 x 1378 km, 63.4° (Epoch: 27 November)

Event Time Altitude Azimuth Distance (km) Brightness Sun altitude
Exits shadow 14:09:14 40° 158° (SSE) 1,724 4.0 -42.6°
Drops below altitude 10° 14:13:32 10° 152° (SSE) 3,037 5.7 -42.4°
Sets 14:16:03 0° 151° (SSE) 3,900 6.4 -42.3°
